Time,TemperatureF,DewpointF,PressureIn,WindDirection,WindDirectionDegrees,WindSpeedMPH,WindSpeedGustMPH,Humidity,HourlyPrecipIn,Conditions,Clouds,dailyrainin,SoftwareType,DateUTC
2013-01-07 00:02:00,20.3,19.6,30.09,NNE,22,0.0,-999.0,97,-99.99,,,0.00,Acu-Link.com,2013-01-07 06:02:00,
2013-01-07 00:18:00,20.5,19.5,30.09,NNE,22,0.0,-999.0,96,-99.99,,,0.00,Acu-Link.com,2013-01-07 06:18:00,
2013-01-07 00:33:00,20.1,19.6,30.10,NNE,22,0.0,-999.0,98,-99.99,,,0.00,Acu-Link.com,2013-01-07 06:33:00,
2013-01-07 00:48:00,19.9,18.9,30.09,NNE,22,0.0,-999.0,96,-99.99,,,0.00,Acu-Link.com,2013-01-07 06:48:00,
2013-01-07 01:04:00,19.8,19.3,30.10,NNE,22,0.0,-999.0,98,-99.99,,,0.00,Acu-Link.com,2013-01-07 07:04:00,
2013-01-07 01:19:00,19.6,19.1,30.10,NNE,22,0.0,-999.0,98,-99.99,,,0.00,Acu-Link.com,2013-01-07 07:19:00,
2013-01-07 01:34:00,19.4,18.9,30.10,NNE,22,0.0,-999.0,98,-99.99,,,0.00,Acu-Link.com,2013-01-07 07:34:00,
2013-01-07 01:50:00,19.4,18.9,30.09,NNE,22,0.0,-999.0,98,-99.99,,,0.00,Acu-Link.com,2013-01-07 07:50:00,
2013-01-07 02:05:00,19.0,18.5,30.09,NNE,22,0.0,-999.0,98,-99.99,,,0.00,Acu-Link.com,2013-01-07 08:05:00,
2013-01-07 02:20:00,18.9,18.4,30.10,NNE,22,0.0,-999.0,98,-99.99,,,0.00,Acu-Link.com,2013-01-07 08:20:00,
2013-01-07 02:35:00,18.9,18.4,30.10,NNE,22,0.0,-999.0,98,-99.99,,,0.00,Acu-Link.com,2013-01-07 08:35:00,
2013-01-07 02:51:00,18.9,18.4,30.10,NNE,22,0.0,-999.0,98,-99.99,,,0.00,Acu-Link.com,2013-01-07 08:51:00,
2013-01-07 03:08:00,18.5,18.0,30.11,NNE,22,0.0,-999.0,98,-99.99,,,0.00,Acu-Link.com,2013-01-07 09:08:00,
2013-01-07 03:23:00,18.5,18.0,30.10,NNE,22,0.0,-999.0,98,-99.99,,,0.00,Acu-Link.com,2013-01-07 09:23:00,
2013-01-07 03:38:00,18.5,18.0,30.11,NNE,22,0.0,-999.0,98,-99.99,,,0.00,Acu-Link.com,2013-01-07 09:38:00,
2013-01-07 03:54:00,18.3,17.8,30.10,NNE,22,0.0,-999.0,98,-99.99,,,0.00,Acu-Link.com,2013-01-07 09:54:00,
2013-01-07 04:09:00,18.1,17.6,30.10,ENE,67,0.0,-999.0,98,-99.99,,,0.00,Acu-Link.com,2013-01-07 10:09:00,
2013-01-07 04:24:00,18.3,17.8,30.10,ENE,67,0.0,-999.0,98,-99.99,,,0.00,Acu-Link.com,2013-01-07 10:24:00,
2013-01-07 04:40:00,18.3,17.8,30.08,ENE,67,0.0,-999.0,98,-99.99,,,0.00,Acu-Link.com,2013-01-07 10:40:00,
2013-01-07 04:55:00,18.3,17.6,30.08,ENE,67,0.0,-999.0,97,-99.99,,,0.00,Acu-Link.com,2013-01-07 10:55:00,
2013-01-07 05:10:00,18.1,17.6,30.08,ESE,112,0.0,-999.0,98,-99.99,,,0.00,Acu-Link.com,2013-01-07 11:10:00,
2013-01-07 05:26:00,18.1,17.6,30.08,East,90,0.0,-999.0,98,-99.99,,,0.00,Acu-Link.com,2013-01-07 11:26:00,
2013-01-07 05:41:00,18.1,17.6,30.08,East,90,0.0,-999.0,98,-99.99,,,0.00,Acu-Link.com,2013-01-07 11:41:00,
2013-01-07 05:56:00,18.3,17.8,30.08,ESE,112,0.0,-999.0,98,-99.99,,,0.00,Acu-Link.com,2013-01-07 11:56:00,
2013-01-07 06:11:00,18.3,17.8,30.08,ESE,112,0.0,-999.0,98,-99.99,,,0.00,Acu-Link.com,2013-01-07 12:11:00,
2013-01-07 06:27:00,18.3,17.8,30.07,SE,135,0.0,-999.0,98,-99.99,,,0.00,Acu-Link.com,2013-01-07 12:27:00,
2013-01-07 06:42:00,18.3,17.8,30.08,ESE,112,0.0,-999.0,98,-99.99,,,0.00,Acu-Link.com,2013-01-07 12:42:00,
2013-01-07 06:57:00,18.3,17.8,30.08,SSE,157,0.0,-999.0,98,-99.99,,,0.00,Acu-Link.com,2013-01-07 12:57:00,
2013-01-07 07:13:00,18.3,17.8,30.08,South,180,0.0,-999.0,98,-99.99,,,0.00,Acu-Link.com,2013-01-07 13:13:00,
2013-01-07 07:28:00,17.8,17.1,30.08,SSW,202,0.0,-999.0,97,-99.99,,,0.00,Acu-Link.com,2013-01-07 13:28:00,
2013-01-07 07:43:00,18.1,17.6,30.08,SW,225,0.0,-999.0,98,-99.99,,,0.00,Acu-Link.com,2013-01-07 13:43:00,
2013-01-07 07:59:00,19.9,19.4,30.08,SSE,157,0.0,-999.0,98,-99.99,,,0.00,Acu-Link.com,2013-01-07 13:59:00,
2013-01-07 08:14:00,22.5,22.0,30.09,WSW,247,0.0,-999.0,98,-99.99,,,0.00,Acu-Link.com,2013-01-07 14:14:00,
2013-01-07 08:29:00,24.6,23.6,30.09,SW,225,0.0,-999.0,96,-99.99,,,0.00,Acu-Link.com,2013-01-07 14:29:00,
2013-01-07 08:44:00,26.4,24.9,30.09,ENE,67,1.1,-999.0,94,-99.99,,,0.00,Acu-Link.com,2013-01-07 14:44:00,
2013-01-07 09:00:00,28.8,26.5,30.09,SSW,202,6.3,-999.0,91,-99.99,,,0.00,Acu-Link.com,2013-01-07 15:00:00,
2013-01-07 09:15:00,30.0,26.9,30.09,ESE,112,1.7,-999.0,88,-99.99,,,0.00,Acu-Link.com,2013-01-07 15:15:00,
2013-01-07 09:30:00,31.3,27.6,30.08,South,180,2.2,-999.0,86,-99.99,,,0.00,Acu-Link.com,2013-01-07 15:30:00,
2013-01-07 09:46:00,32.7,28.4,30.08,SE,135,3.7,-999.0,84,-99.99,,,0.00,Acu-Link.com,2013-01-07 15:46:00,
2013-01-07 10:01:00,34.0,28.5,30.09,SW,225,3.2,-999.0,80,-99.99,,,0.00,Acu-Link.com,2013-01-07 16:01:00,
2013-01-07 10:16:00,34.5,28.7,30.08,WSW,247,6.8,-999.0,79,-99.99,,,0.00,Acu-Link.com,2013-01-07 16:16:00,
2013-01-07 10:32:00,36.0,29.2,30.08,ESE,112,4.7,-999.0,76,-99.99,,,0.00,Acu-Link.com,2013-01-07 16:32:00,
2013-01-07 10:47:00,36.3,29.5,30.06,North,0,6.3,-999.0,76,-99.99,,,0.00,Acu-Link.com,2013-01-07 16:47:00,
2013-01-07 11:02:00,37.8,30.6,30.06,South,180,4.2,-999.0,75,-99.99,,,0.00,Acu-Link.com,2013-01-07 17:02:00,
2013-01-07 11:17:00,37.4,29.9,30.05,ESE,112,3.2,-999.0,74,-99.99,,,0.00,Acu-Link.com,2013-01-07 17:17:00,
2013-01-07 11:33:00,37.4,29.9,30.04,West,270,3.7,-999.0,74,-99.99,,,0.00,Acu-Link.com,2013-01-07 17:33:00,
2013-01-07 11:48:00,38.8,30.9,30.03,ESE,112,2.7,-999.0,73,-99.99,,,0.00,Acu-Link.com,2013-01-07 17:48:00,
2013-01-07 12:03:00,40.6,31.9,30.01,SSW,202,2.2,-999.0,71,-99.99,,,0.00,Acu-Link.com,2013-01-07 18:03:00,
2013-01-07 12:19:00,39.7,31.4,29.99,SSE,157,3.2,-999.0,72,-99.99,,,0.00,Acu-Link.com,2013-01-07 18:19:00,
2013-01-07 12:34:00,41.0,31.6,29.97,West,270,2.7,-999.0,69,-99.99,,,0.00,Acu-Link.com,2013-01-07 18:34:00,
2013-01-07 12:49:00,42.1,32.7,29.95,South,180,3.7,-999.0,69,-99.99,,,0.00,Acu-Link.com,2013-01-07 18:49:00,
2013-01-07 13:05:00,43.7,33.5,29.94,South,180,2.7,-999.0,67,-99.99,,,0.00,Acu-Link.com,2013-01-07 19:05:00,
2013-01-07 13:20:00,44.8,34.5,29.94,SSW,202,5.3,-999.0,67,-99.99,,,0.00,Acu-Link.com,2013-01-07 19:20:00,
2013-01-07 13:35:00,44.8,33.4,29.93,SSW,202,1.7,-999.0,64,-99.99,,,0.00,Acu-Link.com,2013-01-07 19:35:00,
2013-01-07 13:51:00,44.4,33.0,29.93,ESE,112,2.7,-999.0,64,-99.99,,,0.00,Acu-Link.com,2013-01-07 19:51:00,
2013-01-07 14:06:00,45.7,33.4,29.92,East,90,4.2,-999.0,62,-99.99,,,0.00,Acu-Link.com,2013-01-07 20:06:00,
2013-01-07 14:21:00,45.5,32.8,29.92,South,180,2.2,-999.0,61,-99.99,,,0.00,Acu-Link.com,2013-01-07 20:21:00,
2013-01-07 14:36:00,45.9,32.4,29.92,SW,225,2.2,-999.0,59,-99.99,,,0.00,Acu-Link.com,2013-01-07 20:36:00,
2013-01-07 14:52:00,46.4,33.3,29.92,ESE,112,2.7,-999.0,60,-99.99,,,0.00,Acu-Link.com,2013-01-07 20:52:00,
2013-01-07 15:07:00,45.7,32.6,29.91,ESE,112,4.2,-999.0,60,-99.99,,,0.00,Acu-Link.com,2013-01-07 21:07:00,
2013-01-07 15:22:00,45.5,32.4,29.91,SW,225,2.7,-999.0,60,-99.99,,,0.00,Acu-Link.com,2013-01-07 21:22:00,
2013-01-07 15:38:00,45.3,32.7,29.90,SSE,157,3.2,-999.0,61,-99.99,,,0.00,Acu-Link.com,2013-01-07 21:38:00,
2013-01-07 15:53:00,44.4,31.8,29.90,ESE,112,2.7,-999.0,61,-99.99,,,0.00,Acu-Link.com,2013-01-07 21:53:00,
2013-01-07 16:08:00,43.5,31.0,29.91,ESE,112,2.7,-999.0,61,-99.99,,,0.00,Acu-Link.com,2013-01-07 22:08:00,
2013-01-07 16:24:00,42.1,30.8,29.89,SSE,157,1.1,-999.0,64,-99.99,,,0.00,Acu-Link.com,2013-01-07 22:24:00,
2013-01-07 16:39:00,40.8,30.7,29.90,ESE,112,1.7,-999.0,67,-99.99,,,0.00,Acu-Link.com,2013-01-07 22:39:00,
2013-01-07 16:54:00,39.6,32.0,29.89,ESE,112,2.2,-999.0,74,-99.99,,,0.00,Acu-Link.com,2013-01-07 22:54:00,
2013-01-07 17:09:00,39.0,32.7,29.89,WNW,292,1.7,-999.0,78,-99.99,,,0.00,Acu-Link.com,2013-01-07 23:09:00,
2013-01-07 17:25:00,38.1,32.5,29.88,East,90,2.2,-999.0,80,-99.99,,,0.00,Acu-Link.com,2013-01-07 23:25:00,
2013-01-07 17:40:00,36.9,31.9,29.89,East,90,0.0,-999.0,82,-99.99,,,0.00,Acu-Link.com,2013-01-07 23:40:00,
2013-01-07 17:55:00,36.1,31.4,29.90,NNW,337,0.0,-999.0,83,-99.99,,,0.00,Acu-Link.com,2013-01-07 23:55:00,
2013-01-07 18:11:00,34.3,30.0,29.89,SSE,157,0.0,-999.0,84,-99.99,,,0.00,Acu-Link.com,2013-01-08 00:11:00,
2013-01-07 18:26:00,32.7,29.3,29.89,East,90,0.0,-999.0,87,-99.99,,,0.00,Acu-Link.com,2013-01-08 00:26:00,
2013-01-07 18:42:00,32.7,29.8,29.88,East,90,0.0,-999.0,89,-99.99,,,0.00,Acu-Link.com,2013-01-08 00:42:00,
2013-01-07 18:57:00,32.0,29.4,29.88,ESE,112,0.0,-999.0,90,-99.99,,,0.00,Acu-Link.com,2013-01-08 00:57:00,
2013-01-07 19:12:00,32.2,29.3,29.88,NE,45,0.0,-999.0,89,-99.99,,,0.00,Acu-Link.com,2013-01-08 01:12:00,
2013-01-07 19:27:00,31.6,29.0,29.88,ESE,112,1.7,-999.0,90,-99.99,,,0.00,Acu-Link.com,2013-01-08 01:27:00,
2013-01-07 19:43:00,31.6,28.7,29.87,ESE,112,0.0,-999.0,89,-99.99,,,0.00,Acu-Link.com,2013-01-08 01:43:00,
2013-01-07 19:58:00,30.7,28.1,29.87,SSE,157,0.0,-999.0,90,-99.99,,,0.00,Acu-Link.com,2013-01-08 01:58:00,
2013-01-07 20:13:00,29.8,27.8,29.87,WNW,292,0.0,-999.0,92,-99.99,,,0.00,Acu-Link.com,2013-01-08 02:13:00,
2013-01-07 20:29:00,30.6,28.6,29.87,East,90,2.2,-999.0,92,-99.99,,,0.00,Acu-Link.com,2013-01-08 02:29:00,
2013-01-07 20:44:00,32.7,29.0,29.87,SE,135,1.7,-999.0,86,-99.99,,,0.00,Acu-Link.com,2013-01-08 02:44:00,
2013-01-07 20:59:00,34.2,29.0,29.87,ESE,112,3.2,-999.0,81,-99.99,,,0.00,Acu-Link.com,2013-01-08 02:59:00,
2013-01-07 21:15:00,34.2,28.7,29.87,SW,225,1.1,-999.0,80,-99.99,,,0.00,Acu-Link.com,2013-01-08 03:15:00,
2013-01-07 21:30:00,33.8,28.3,29.87,NE,45,1.1,-999.0,80,-99.99,,,0.00,Acu-Link.com,2013-01-08 03:30:00,
2013-01-07 21:45:00,33.1,27.9,29.88,SSW,202,1.7,-999.0,81,-99.99,,,0.00,Acu-Link.com,2013-01-08 03:45:00,
2013-01-07 22:00:00,32.4,27.5,29.87,NE,45,0.0,-999.0,82,-99.99,,,0.00,Acu-Link.com,2013-01-08 04:00:00,
2013-01-07 22:16:00,32.0,27.4,29.87,ESE,112,0.0,-999.0,83,-99.99,,,0.00,Acu-Link.com,2013-01-08 04:16:00,
2013-01-07 22:31:00,31.5,27.2,29.87,East,90,0.0,-999.0,84,-99.99,,,0.00,Acu-Link.com,2013-01-08 04:31:00,
2013-01-07 22:46:00,30.9,26.9,29.87,SSE,157,0.0,-999.0,85,-99.99,,,0.00,Acu-Link.com,2013-01-08 04:46:00,
2013-01-07 23:17:00,29.7,26.3,29.86,ESE,112,0.0,-999.0,87,-99.99,,,0.00,Acu-Link.com,2013-01-08 05:17:00,
2013-01-07 23:32:00,28.8,26.0,29.86,ESE,112,0.0,-999.0,89,-99.99,,,0.00,Acu-Link.com,2013-01-08 05:32:00,
2013-01-07 23:48:00,28.4,26.1,29.85,East,90,0.0,-999.0,91,-99.99,,,0.00,Acu-Link.com,2013-01-08 05:48:00,